Regional Weather Roundup
Issued by NWS

Home | Current Version | Previous Version | Graphics & Text | Print | Product List | Glossary On
Versions: 1 2 3 4 5 6 7 8 9 10 11 12 13 14 15 16 17 18 19 20 21 22 23 24 25 26 27 28 29 30 31 32 33 34 35 36 37 38 39 40 41 42 43 44 45 46 47 48 49 50
000
ASUS43 KFSD 030110
RWRSD

WEATHER ROUNDUP FOR SOUTH DAKOTA
NATIONAL WEATHER SERVICE SIOUX FALLS SD
800 PM CDT THU JUL 02 2015

NOTE: "FAIR" INDICATES FEW OR NO CLOUDS BELOW 12,000 FEET WITH NO
SIGNIFICANT WEATHER AND/OR OBSTRUCTIONS TO VISIBILITY.


SDZ001>005-009-010-012>017-030200-
NORTHWEST AND NORTH CENTRAL SOUTH DAKOTA

CITY           SKY/WX    TMP DP  RH WIND       PRES   REMARKS
BUFFALO          N/A     77  57  50 N9        29.99F
FAITH            N/A     75  58  55 N10       30.02S
MOBRIDGE       SUNNY     77  68  73 N5        29.94S HAZE
$$

SDZ012>016-024>037-041>051-057-063-072>074-030200-
SOUTHWEST AND SOUTH CENTRAL SOUTH DAKOTA

CITY           SKY/WX    TMP DP  RH WIND       PRES   REMARKS
RAPID CTY ARPT SUNNY     76  58  53 N10       30.06S
PIERRE         MOSUNNY   74  65  73 SE3       29.95S
CUSTER         SUNNY     70  48  45 N10       30.19S
ELLSWORTH AFB  SUNNY     77  59  52 N12       30.05F
PHILIP         MOSUNNY   78  61  55 N7        29.98F
PINE RIDGE     SUNNY     76  58  53 NE6       30.06S
SPEARFISH      FAIR      72  59  64 N6        30.12S
WINNER         FAIR      75  61  61 E10       29.98S
$$

SDZ004>011-016>023-039-040-030200-
NORTHEAST SOUTH DAKOTA

CITY           SKY/WX    TMP DP  RH WIND       PRES   REMARKS
ABERDEEN       SUNNY     71  62  73 S7        29.95F
WATERTOWN      SUNNY     70  52  52 SW6       29.98S
BROOKINGS      MOSUNNY   70  54  56 S6        30.00S
SISSETON         N/A     70  57  63 S6        29.94F
$$

SDZ017-020-022-023-036>040-048>070-030200-
SOUTHEAST SOUTH DAKOTA

CITY           SKY/WX    TMP DP  RH WIND       PRES   REMARKS
SIOUX FALLS    PTSUNNY   68  59  73 S6        29.98S
HURON          MOSUNNY   68  60  75 S6        29.97R
CHAMBERLAIN    SUNNY     69  64  84 SE6       29.97F
MITCHELL       PTSUNNY   68  60  75 SE6       29.98S
YANKTON        CLOUDY    66  61  82 SE7       29.96S
$$

ABBREVIATIONS USED IN REMARKS
   TC - TEMPERATURE IN CELSIUS
  WCI - WIND CHILL INDEX
   HX - HEAT INDEX
  VSB - VISIBILITY



USA.gov is the U.S. government's official web portal to all federal, state and local government web resources and services.